FW4630 Weather Reports


time (UTC)temp
C
wind
direction
speed
KPH
gust
KPH
rain 1hr
cm
rain 24hr
cm
rain mn
cm
humidity
%
barometer
mb
20260906212039 28 101 35.4 49.9 0.00 0.00 0.00 44 1016.5
20260906211538 28 79 38.6 54.7 0.00 0.00 0.00 43 1016.7
20260906211037 28 74 38.6 54.7 0.00 0.00 0.00 42 1016.6
20260906210537 30 103 37.0 54.7 0.00 0.00 0.00 40 1016.5
20260906210037 30 98 35.4 54.7 0.00 0.00 0.00 40 1016.6
20260906205806 30 72 35.4 51.5 0.00 0.00 0.00 40 1016.7
20260906205036 30 52 33.8 48.3 0.00 0.00 0.00 39 1016.8
20260906204535 30 49 32.2 45.1 0.00 0.00 0.00 40 1016.8
20260906204029 30 67 32.2 43.5 0.00 0.00 0.00 39 1017.0
20260906203529 30 57 32.2 48.3 0.00 0.00 0.00 40 1017.1
20260906203301 30 59 27.4 48.3 0.00 0.00 0.00 39 1017.0
20260906202530 30 57 25.7 37.0 0.00 0.00 0.00 39 1017.1
20260906202029 30 64 27.4 40.2 0.00 0.00 0.00 38 1017.0
20260906201531 30 74 24.1 40.2 0.00 0.00 0.00 38 1017.2
20260906201023 31 78 22.5 32.2 0.00 0.00 0.00 38 1017.2
20260906200524 31 80 25.7 38.6 0.00 0.00 0.00 37 1017.2
20260906200023 31 24 24.1 38.6 0.00 0.00 0.00 38 1017.2
20260906195523 31 65 19.3 32.2 0.00 0.00 0.00 37 1017.3
20260906195023 31 74 16.1 27.4 0.00 0.00 0.00 37 1017.4
20260906194522 31 59 16.1 25.7 0.00 0.00 0.00 38 1017.4
20260906194017 30 63 17.7 25.7 0.00 0.00 0.00 38 1017.4
20260906193517 30 27 14.5 25.7 0.00 0.00 0.00 38 1017.6
20260906193024 30 355 14.5 24.1 0.00 0.00 0.00 38 1017.5
20260906192517 30 332 16.1 24.1 0.00 0.00 0.00 38 1017.5
20260906192017 30 347 11.3 20.9 0.00 0.00 0.00 38 1017.8
20260906191516 30 35 11.3 25.7 0.00 0.00 0.00 39 1017.9
20260906191015 30 24 16.1 25.7 0.00 0.00 0.00 39 1017.9
20260906190513 30 61 11.3 25.7 0.00 0.00 0.00 39 1018.0
20260906190011 29 43 11.3 25.7 0.00 0.00 0.00 39 1018.1
20260906185511 29 18 14.5 24.1 0.00 0.00 0.00 40 1018.1
20260906184514 29 350 12.9 20.9 0.00 0.00 0.00 41 1018.2
20260906184239 29 344 12.9 19.3 0.00 0.00 0.00 40 1018.3
20260906183507 29 314 11.3 19.3 0.00 0.00 0.00 41 1018.3
20260906183007 29 355 11.3 20.9 0.00 0.00 0.00 41 1018.4
20260906182005 28 325 9.7 19.3 0.00 0.00 0.00 42 1018.6
20260906181505 28 302 8.0 17.7 0.00 0.00 0.00 41 1018.4
20260906181004 28 310 8.0 17.7 0.00 0.00 0.00 42 1018.6
20260906180501 28 65 9.7 16.1 0.00 0.00 0.00 42 1018.6
20260906180001 28 59 11.3 19.3 0.00 0.00 0.00 43 1018.7
20260906175459 28 5 9.7 19.3 0.00 0.00 0.00 43 1018.7
20260906174959 28 332 9.7 17.7 0.00 0.00 0.00 42 1018.7
20260906174458 28 15 9.7 17.7 0.00 0.00 0.00 43 1018.8
20260906173955 28 345 9.7 20.9 0.00 0.00 0.00 44 1018.9
20260906172952 28 35 12.9 20.9 0.00 0.00 0.00 44 1019.2
20260906172453 27 44 11.3 20.9 0.00 0.00 0.00 45 1019.2
20260906171952 27 9 12.9 19.3 0.00 0.00 0.00 45 1019.2
20260906170946 27 355 11.3 22.5 0.00 0.00 0.00 46 1019.2
20260906170445 27 340 9.7 19.3 0.00 0.00 0.00 46 1019.2
20260906165943 27 315 11.3 19.3 0.00 0.00 0.00 46 1019.1
20260906165443 26 72 11.3 19.3 0.00 0.00 0.00 46 1019.2
20260906164943 27 28 11.3 17.7 0.00 0.00 0.00 46 1019.5
20260906164442 27 348 11.3 20.9 0.00 0.00 0.00 46 1019.2
20260906163941 27 355 11.3 20.9 0.00 0.00 0.00 47 1019.4
20260906163440 26 5 11.3 19.3 0.00 0.00 0.00 47 1019.4
20260906162941 27 24 11.3 19.3 0.00 0.00 0.00 46 1019.5
20260906162441 26 309 9.7 14.5 0.00 0.00 0.00 47 1019.5
20260906161940 26 0 11.3 19.3 0.00 0.00 0.00 47 1019.6
20260906161712 26 0 14.5 19.3 0.00 0.00 0.00 48 1019.5
20260906161214 26 0 12.9 19.3 0.00 0.00 0.00 48 1019.4
20260906160443 27 344 9.7 17.7 0.00 0.00 0.00 47 1019.5
20260906160209 27 348 9.7 17.7 0.00 0.00 0.00 47 1019.6
20260906154924 26 312 11.3 19.3 0.00 0.00 0.00 48 1019.6
20260906154419 26 340 11.3 19.3 0.00 0.00 0.00 48 1019.5
20260906154146 26 57 11.3 17.7 0.00 0.00 0.00 49 1019.4
20260906153414 26 33 12.9 17.7 0.00 0.00 0.00 49 1019.4
20260906153148 26 19 12.9 17.7 0.00 0.00 0.00 49 1019.4
20260906152414 26 5 12.9 19.3 0.00 0.00 0.00 48 1019.2
20260906151916 26 36 9.7 19.3 0.00 0.00 0.00 48 1019.0
20260906151414 26 49 8.0 14.5 0.00 0.00 0.00 47 1019.0
20260906150411 26 42 8.0 16.1 0.00 0.00 0.00 49 1019.2
20260906145410 25 28 9.7 16.1 0.00 0.00 0.00 49 1019.5
20260906144911 25 32 9.7 16.1 0.00 0.00 0.00 50 1019.5
20260906144642 25 36 9.7 16.1 0.00 0.00 0.00 50 1019.5
20260906143906 25 71 9.7 16.1 0.00 0.00 0.00 49 1019.5
20260906142906 25 70 9.7 16.1 0.00 0.00 0.00 50 1019.2
20260906142405 25 53 9.7 14.5 0.00 0.00 0.00 50 1019.4
20260906141905 24 40 9.7 14.5 0.00 0.00 0.00 51 1019.5
20260906141402 24 69 9.7 14.5 0.00 0.00 0.00 52 1019.2
20260906140902 24 49 11.3 16.1 0.00 0.00 0.00 52 1019.2
20260906140402 23 47 11.3 16.1 0.00 0.00 0.00 52 1019.4
20260906135903 24 45 11.3 17.7 0.00 0.00 0.00 52 1019.4
20260906135401 23 66 12.9 17.7 0.00 0.00 0.00 53 1019.4
20260906134902 23 40 12.9 17.7 0.00 0.00 0.00 53 1019.2
20260906134358 23 51 11.3 17.7 0.00 0.00 0.00 53 1019.4
20260906134136 23 51 8.0 14.5 0.00 0.00 0.00 54 1019.5
20260906133629 23 90 9.7 14.5 0.00 0.00 0.00 53 1019.2
20260906132856 23 38 8.0 14.5 0.00 0.00 0.00 55 1019.2
20260906132355 24 13 4.8 12.9 0.00 0.00 0.00 54 1019.4
20260906131853 24 191 3.2 8.0 0.00 0.00 0.00 54 1019.4
20260906131348 24 191 1.6 6.4 0.00 0.00 0.00 53 1019.4
20260906130848 24 191 0.0 3.2 0.00 0.00 0.00 54 1019.2
20260906130351 23 191 0.0 3.2 0.00 0.00 0.00 55 1019.2
20260906130120 23 191 0.0 1.6 0.00 0.00 0.00 55 1019.2
20260906125348 23 191 0.0 3.2 0.00 0.00 0.00 56 1019.1
20260906124848 23 191 0.0 3.2 0.00 0.00 0.00 56 1019.1
20260906124346 22 191 0.0 4.8 0.00 0.00 0.00 57 1019.1
20260906123844 22 191 3.2 6.4 0.00 0.00 0.00 57 1019.1
20260906123342 22 191 4.8 8.0 0.00 0.00 0.00 57 1019.1
20260906122843 22 191 6.4 8.0 0.00 0.00 0.00 58 1019.1
20260906122343 22 191 6.4 11.3 0.00 0.00 0.00 59 1019.1
20260906121844 22 238 6.4 11.3 0.00 0.00 0.00 59 1018.9
20260906121336 22 190 4.8 9.7 0.00 0.00 0.00 59 1018.9
20260906120834 22 44 4.8 8.0 0.00 0.00 0.00 58 1019.0
20260906120332 22 44 4.8 6.4 0.00 0.00 0.00 57 1018.8
20260906115830 22 44 3.2 8.0 0.00 0.00 0.00 56 1018.9
20260906115332 22 44 3.2 8.0 0.00 0.00 0.00 55 1018.8
20260906114826 22 44 3.2 6.4 0.00 0.00 0.00 55 1018.9
20260906114557 22 44 4.8 6.4 0.00 0.00 0.00 55 1018.8
20260906113824 22 44 3.2 4.8 0.00 0.00 0.00 56 1018.8
20260906113325 22 44 1.6 3.2 0.00 0.00 0.00 56 1018.8
20260906112824 22 44 3.2 4.8 0.00 0.00 0.00 56 1018.7
20260906112555 22 44 3.2 6.4 0.00 0.00 0.00 54 1018.8
20260906111820 23 44 3.2 6.4 0.00 0.00 0.00 55 1018.8
20260906111321 23 44 4.8 6.4 0.00 0.00 0.00 53 1018.8
20260906110821 23 44 6.4 6.4 0.00 0.00 0.00 54 1018.9
20260906110549 23 44 6.4 8.0 0.00 0.00 0.00 54 1019.0
20260906105818 23 44 6.4 8.0 0.00 0.00 0.00 54 1018.9
20260906105318 23 44 8.0 8.0 0.00 0.00 0.00 56 1018.8
20260906104816 23 44 6.4 8.0 0.00 0.00 0.00 57 1018.9
20260906104316 23 44 6.4 8.0 0.00 0.00 0.00 56 1018.9
20260906103816 23 44 6.4 8.0 0.00 0.00 0.00 56 1018.9
20260906103314 23 44 6.4 8.0 0.00 0.00 0.00 56 1018.9
20260906102812 23 44 8.0 9.7 0.00 0.00 0.00 55 1018.9
20260906102546 23 44 8.0 11.3 0.00 0.00 0.00 56 1018.8
20260906101810 23 21 8.0 11.3 0.00 0.00 0.00 56 1018.8
20260906101310 23 21 6.4 8.0 0.00 0.00 0.00 56 1018.8
20260906100809 23 21 6.4 11.3 0.00 0.00 0.00 57 1018.7
20260906100308 23 21 6.4 11.3 0.00 0.00 0.00 58 1018.9
20260906100038 23 21 6.4 11.3 0.00 0.00 0.00 58 1018.9
20260906095307 23 21 6.4 9.7 0.00 0.00 0.00 59 1018.8
20260906094800 23 21 6.4 9.7 0.00 0.00 0.00 59 1018.8
20260906094529 23 355 6.4 9.7 0.00 0.00 0.00 59 1018.8
20260906093758 23 355 6.4 9.7 0.00 0.00 0.00 58 1018.7
20260906093257 23 355 4.8 8.0 0.00 0.00 0.00 57 1018.8
20260906092758 23 355 4.8 8.0 0.00 0.00 0.00 58 1018.6
20260906092258 23 355 4.8 8.0 0.00 0.00 0.00 58 1018.7
20260906091754 23 355 4.8 8.0 0.00 0.00 0.00 56 1018.7
20260906091253 23 355 4.8 6.4 0.00 0.00 0.00 56 1018.6
20260906090754 23 355 4.8 8.0 0.00 0.00 0.00 57 1018.6
20260906090524 23 355 6.4 8.0 0.00 0.00 0.00 56 1018.7
20260906090021 23 355 6.4 8.0 0.00 0.00 0.00 56 1018.7
20260906085250 24 346 4.8 8.0 0.00 0.00 0.00 55 1018.8
20260906084744 24 0 3.2 9.7 0.00 0.00 0.00 55 1018.9
20260906084244 23 46 4.8 9.7 0.00 0.00 0.00 55 1018.9
20260906083738 24 31 4.8 9.7 0.00 0.00 0.00 55 1018.9
20260906083236 24 283 3.2 6.4 0.00 0.00 0.00 55 1018.9
20260906082735 24 283 4.8 11.3 0.00 0.00 0.00 54 1018.8
20260906082236 24 283 6.4 11.3 0.00 0.00 0.00 55 1018.8
20260906081736 23 276 3.2 11.3 0.00 0.00 0.00 55 1018.8
20260906081236 24 38 1.6 6.4 0.00 0.00 0.00 55 1019.0
20260906080736 23 38 3.2 9.7 0.00 0.00 0.00 55 1018.7
20260906080232 23 38 3.2 9.7 0.00 0.00 0.00 56 1018.9
20260906075732 23 121 3.2 9.7 0.00 0.00 0.00 56 1018.9
20260906075231 23 121 6.4 14.5 0.00 0.00 0.00 55 1018.9
20260906074732 23 121 12.9 17.7 0.00 0.00 0.00 55 1018.9
20260906074231 23 34 11.3 17.7 0.00 0.00 0.00 57 1018.9
20260906073731 24 12 8.0 17.7 0.00 0.00 0.00 55 1018.9
20260906073228 25 82 9.7 29.0 0.00 0.00 0.00 51 1018.7
20260906072728 25 165 12.9 30.6 0.00 0.00 0.00 51 1018.3
20260906072228 25 174 11.3 30.6 0.00 0.00 0.00 53 1018.3
20260906071727 25 189 8.0 16.1 0.00 0.00 0.00 54 1018.6
20260906071227 25 199 8.0 24.1 0.00 0.00 0.00 54 1018.6
20260906070728 25 181 11.3 24.1 0.00 0.00 0.00 54 1018.7
20260906070221 25 186 12.9 32.2 0.00 0.00 0.00 54 1018.7
20260906065720 25 167 12.9 32.2 0.00 0.00 0.00 54 1018.6
20260906065219 25 219 11.3 29.0 0.00 0.00 0.00 56 1018.7
20260906064720 25 178 16.1 38.6 0.00 0.00 0.00 57 1018.9
20260906064220 25 188 17.7 53.1 0.00 0.00 0.00 57 1018.7
20260906063718 25 197 12.9 53.1 0.00 0.00 0.00 57 1018.6
20260906063217 25 125 8.0 25.7 0.00 0.00 0.00 58 1018.6
20260906062715 25 130 6.4 14.5 0.00 0.00 0.00 57 1018.6
20260906062211 25 225 8.0 24.1 0.00 0.00 0.00 56 1018.7
20260906061711 25 177 11.3 29.0 0.00 0.00 0.00 54 1018.7
20260906061442 25 173 9.7 29.0 0.00 0.00 0.00 54 1018.7
20260906060711 25 197 6.4 22.5 0.00 0.00 0.00 53 1018.7
20260906060441 25 141 8.0 22.5 0.00 0.00 0.00 53 1018.8
20260906055710 25 105 9.7 20.9 0.00 0.00 0.00 53 1018.9
20260906055208 25 132 12.9 20.9 0.00 0.00 0.00 54 1019.0
20260906054708 24 116 14.5 19.3 0.00 0.00 0.00 53 1019.1
20260906054208 24 90 14.5 19.3 0.00 0.00 0.00 51 1019.2
20260906053707 24 78 14.5 19.3 0.00 0.00 0.00 51 1019.2
20260906053204 24 80 12.9 19.3 0.00 0.00 0.00 51 1019.4
20260906052706 24 80 11.3 16.1 0.00 0.00 0.00 51 1019.4
20260906052158 24 107 11.3 16.1 0.00 0.00 0.00 50 1019.2
20260906051658 24 118 9.7 16.1 0.00 0.00 0.00 50 1019.2
20260906051430 24 139 9.7 19.3 0.00 0.00 0.00 50 1019.1
20260906050930 24 115 11.3 19.3 0.00 0.00 0.00 51 1019.1
20260906050158 23 73 12.9 17.7 0.00 0.00 0.00 51 1019.4
20260906045929 24 65 12.9 17.7 0.00 0.00 0.00 50 1019.4
20260906044652 24 59 12.9 22.5 0.00 0.00 0.00 48 1019.4
20260906044155 25 51 9.7 16.1 0.00 0.00 0.00 47 1019.5
20260906043652 25 67 9.7 14.5 0.00 0.00 0.00 48 1019.5
20260906043151 25 67 8.0 14.5 0.00 0.00 0.00 48 1019.5
20260906042653 25 71 9.7 17.7 0.00 0.00 0.00 48 1019.5
20260906042148 26 101 12.9 19.3 0.00 0.00 0.00 48 1019.1
20260906041647 26 119 14.5 20.9 0.00 0.00 0.00 47 1019.2
20260906041149 26 99 12.9 20.9 0.00 0.00 0.00 47 1019.2
20260906040148 26 87 16.1 22.5 0.00 0.00 0.00 46 1019.4
20260906035647 26 120 16.1 22.5 0.00 0.00 0.00 46 1019.2
20260906035148 26 114 14.5 29.0 0.00 0.00 0.00 45 1019.2
20260906034644 26 130 16.1 29.0 0.00 0.00 0.00 44 1019.2
20260906034414 26 153 19.3 30.6 0.00 0.00 0.00 44 1019.2
20260906033643 26 116 22.5 37.0 0.00 0.00 0.00 43 1019.2
20260906033414 26 118 22.5 37.0 0.00 0.00 0.00 43 1019.4
20260906032644 26 107 20.9 29.0 0.00 0.00 0.00 43 1019.4
20260906032416 26 103 20.9 30.6 0.00 0.00 0.00 43 1019.4
20260906031643 26 134 19.3 30.6 0.00 0.00 0.00 43 1019.4
20260906031140 26 105 16.1 24.1 0.00 0.00 0.00 43 1019.1
20260906030639 26 103 16.1 32.2 0.00 0.00 0.00 42 1019.1
20260906030410 26 109 16.1 32.2 0.00 0.00 0.00 42 1019.0
20260906025640 26 111 12.9 24.1 0.00 0.00 0.00 42 1019.0
20260906025133 26 107 12.9 25.7 0.00 0.00 0.00 42 1018.9
20260906024630 26 124 14.5 29.0 0.00 0.00 0.00 41 1018.8
20260906024402 26 126 14.5 29.0 0.00 0.00 0.00 40 1018.8
20260906023629 26 119 12.9 25.7 0.00 0.00 0.00 40 1018.7
20260906023130 26 105 14.5 25.7 0.00 0.00 0.00 39 1018.6
20260906022901 26 128 14.5 27.4 0.00 0.00 0.00 39 1018.6
20260906022401 26 155 14.5 27.4 0.00 0.00 0.00 39 1018.6
20260906021626 26 113 12.9 24.1 0.00 0.00 0.00 38 1018.6
20260906021125 26 108 12.9 24.1 0.00 0.00 0.00 38 1018.4
20260906020856 26 118 11.3 20.9 0.00 0.00 0.00 37 1018.4
20260906020126 27 137 11.3 27.4 0.00 0.00 0.00 36 1018.4
20260906015628 27 171 12.9 27.4 0.00 0.00 0.00 36 1018.6
20260906015129 27 142 16.1 27.4 0.00 0.00 0.00 36 1018.4
20260906014623 27 112 16.1 27.4 0.00 0.00 0.00 35 1018.6
20260906014122 27 100 14.5 30.6 0.00 0.00 0.00 35 1018.6
20260906013621 27 121 14.5 30.6 0.00 0.00 0.00 35 1018.4
20260906013119 27 124 16.1 30.6 0.00 0.00 0.00 35 1018.4
20260906012350 27 105 19.3 32.2 0.00 0.00 0.00 35 1018.6
20260906011854 28 112 19.3 33.8 0.00 0.00 0.00 35 1018.6
20260906011119 28 110 19.3 33.8 0.00 0.00 0.00 35 1018.6
20260906010851 28 111 17.7 30.6 0.00 0.00 0.00 35 1018.7
20260906010351 28 88 16.1 25.7 0.00 0.00 0.00 35 1018.7
20260906005617 28 107 16.1 29.0 0.00 0.00 0.00 34 1018.8
20260906005115 28 83 16.1 29.0 0.00 0.00 0.00 34 1018.8
20260906004846 28 101 17.7 27.4 0.00 0.00 0.00 34 1018.8
20260906004116 28 115 16.1 27.4 0.00 0.00 0.00 34 1018.8
20260906003614 28 115 14.5 24.1 0.00 0.00 0.00 34 1018.8
20260906003115 28 95 14.5 22.5 0.00 0.00 0.00 34 1018.8
20260906002607 29 109 16.1 22.5 0.00 0.00 0.00 34 1018.8
20260906002107 28 85 16.1 24.1 0.00 0.00 0.00 34 1018.8
20260906001607 28 75 16.1 24.1 0.00 0.00 0.00 35 1018.7
20260906001107 28 71 14.5 19.3 0.00 0.00 0.00 35 1018.8
20260906000608 29 59 12.9 17.7 0.00 0.00 0.00 34 1018.8
20260906000106 28 64 14.5 20.9 0.00 0.00 0.00 34 1018.7
20260905235601 29 49 14.5 20.9 0.00 0.00 0.00 34 1018.8
20260905235101 29 36 14.5 19.3 0.00 0.00 0.00 33 1018.8
20260905234603 29 50 12.9 19.3 0.00 0.00 0.00 33 1018.8
20260905234101 29 40 14.5 19.3 0.00 0.00 0.00 33 1018.8
20260905233601 29 38 16.1 24.1 0.00 0.00 0.00 33 1018.8
20260905233101 29 47 14.5 24.1 0.00 0.00 0.00 33 1018.7
20260905232555 29 42 12.9 20.9 0.00 0.00 0.00 32 1018.8
20260905232326 30 22 16.1 22.5 0.00 0.00 0.00 32 1018.7
20260905231555 30 15 16.1 22.5 0.00 0.00 0.00 31 1018.7
20260905231055 30 59 16.1 25.7 0.00 0.00 0.00 32 1018.7
20260905230555 30 16 16.1 25.7 0.00 0.00 0.00 33 1018.6
20260905230057 30 27 16.1 24.1 0.00 0.00 0.00 33 1018.4
20260905225549 30 32 16.1 24.1 0.00 0.00 0.00 32 1018.4
20260905225050 30 31 12.9 20.9 0.00 0.00 0.00 31 1018.6
20260905224549 30 27 14.5 25.7 0.00 0.00 0.00 31 1018.4
20260905224320 30 9 17.7 27.4 0.00 0.00 0.00 31 1018.4
20260905223549 30 28 17.7 27.4 0.00 0.00 0.00 31 1018.3
20260905223048 31 34 16.1 25.7 0.00 0.00 0.00 29 1018.3
20260905222543 31 5 16.1 25.7 0.00 0.00 0.00 29 1018.2
20260905222044 31 344 14.5 25.7 0.00 0.00 0.00 29 1018.2
20260905221545 31 5 12.9 20.9 0.00 0.00 0.00 29 1018.3
20260905221043 31 11 14.5 22.5 0.00 0.00 0.00 28 1018.2
20260905220543 31 15 17.7 29.0 0.00 0.00 0.00 29 1018.3
20260905220043 30 36 16.1 29.0 0.00 0.00 0.00 29 1018.4
20260905215539 31 34 16.1 22.5 0.00 0.00 0.00 28 1018.3
20260905215039 31 15 17.7 29.0 0.00 0.00 0.00 28 1018.2
20260905214539 31 46 17.7 29.0 0.00 0.00 0.00 28 1018.3
20260905214038 31 19 17.7 29.0 0.00 0.00 0.00 29 1018.4
20260905213537 31 349 16.1 25.7 0.00 0.00 0.00 29 1018.4
20260905213039 31 355 14.5 22.5 0.00 0.00 0.00 29 1018.7
20260905212532 31 342 14.5 20.9 0.00 0.00 0.00 30 1018.7